Regional Weather Roundup
Issued by NWS

Current Version | Previous Version | Text Only | Print | Product List | Glossary On
Versions: 1 2 3 4 5 6 7 8 9 10 11 12 13 14 15 16 17 18 19 20 21 22 23 24 25 26 27 28 29 30 31 32 33 34 35 36 37 38 39 40 41 42 43 44 45 46 47 48 49 50
000
ASUS42 KTBW 220418
RWRFL
FLORIDA REGIONAL WEATHER ROUNDUP
NATIONAL WEATHER SERVICE TAMPA BAY RUSKIN FL
1200 AM EDT FRI SEP 22 2017

NOTE: "FAIR" INDICATES FEW OR NO CLOUDS BELOW 12,000 FEET WITH NO
SIGNIFICANT WEATHER AND/OR OBSTRUCTIONS TO VISIBILITY.

FLZ001>010-012>015-112-114-115-220500-
PANHANDLE FLORIDA

CITY           SKY/WX    TMP DP  RH WIND       PRES   REMARKS
PENSACOLA      PTCLDY    80  75  84 CALM      29.98F
PENSACOLA NAS  PTCLDY    76  73  91 CALM      29.98S
MILTON NAS     CLEAR     72  72 100 CALM      29.99
CRESTVIEW      CLEAR     73  71  93 CALM      30.00F
DUKE FIELD     PTCLDY    72  70  93 CALM      29.99S
VALPARAISO     PTCLDY    76  70  84 CALM      29.98F
MARY ESTHER    CLEAR     76  67  74 CALM      29.97F
PANAMA CITY    FAIR      72  70  93 CALM      29.98F
TYNDALL AFB    CLEAR     74  72  92 CALM      29.99F
APALACHICOLA   CLEAR     73  73 100 NE6       29.99R

STATION/POSITION SKY/WX   TEMP    WIND        PRES    WAVE   SWELL
                          AIR SEA DIR/SP/G            HT/PER HT/PER
                          (F)     (DEG/KT/KT) (MB)    (FT/S) (FT/S)
30.1N   87.6W              82 84     CALM     1015.2R   1
29.2N   88.2W              82 85   70/  4/  6 1015.3
28.8N   86.0W              82 83   60/  8/ 10 1015.0R   1/ 5   2/ 5
PANAMA CITY BEAC           76      40/  5/  6 1015.9F
TOWER C                    79                 1015.7F
28.5N   84.5W              82 82   20/  8/ 10 1014.6R   1

$$
FLZ011-016>038-118-127-128-134-139-239-220500-
NORTH FLORIDA

CITY           SKY/WX    TMP DP  RH WIND       PRES   REMARKS
MARIANNA       CLEAR     72  71  97 CALM      30.00S
TALLAHASSEE    PTCLDY    71  71 100 NW3       30.00S
LIVE OAK       CLEAR     72  72 100 CALM      30.02S FOG
CROSS CITY     CLEAR     72  70  96 CALM      30.04S
LAKE CITY      FAIR      66  66 100 N3        30.01S
GAINESVILLE    CLEAR     73  69  87 CALM      30.02S
WILLISTON      CLEAR     75  72  88 CALM      29.99F
PALATKA        FAIR      70  70 100 CALM      30.00S
MAYPORT NAS    MOCLDY    80  72  76 E10       30.00S
JACKSONVILLE   PTCLDY    74  73  97 NE5       30.00R
JAX NAS        PTCLDY    79  73  82 E6        30.00S
JAX CECIL      CLEAR     72  72 100 CALM      30.00S
FERNANDINA BEA FAIR      79  72  78 MISG      29.99F
ST AUGUSTINE   CLEAR     80  69  69 E12       30.00S
PALM COAST     FAIR      75  33  21 E3        29.99S

STATION/POSITION SKY/WX   TEMP    WIND        PRES    WAVE   SWELL
                          AIR SEA DIR/SP/G            HT/PER HT/PER
                          (F)     (DEG/KT/KT) (MB)    (FT/S) (FT/S)
SHELL POINT      NOT AVBL
KEATON BEACH               73      60/  4/  5 1015.2F
CEDAR KEY                  80     110/ 12/ 14 1015.6R
FERNANDINA                 80 82   90/  4/  6 1016.8F
30.7N   81.3W                 83                N/A     2/12   2/12
MAYPORT                    80 82  100/  7/ 11 1016.2F
31.4N   80.9W              80 81  100/  8/ 10 1016.0F   2/11   2/11
ST AUGUSTINE               81 84   80/ 11/ 14 1015.9S

$$
FLZ040-043>046-052-053-057-058-063-144-220500-
INTERIOR CENTRAL FLORIDA

CITY           SKY/WX    TMP DP  RH WIND       PRES   REMARKS
OCALA          CLEAR     74  71  91 CALM      30.00R
THE VILLAGES     N/A     75  72  88 CALM      29.89S
LEESBURG       CLEAR     76  72  87 NE6       29.99S
SANFORD        CLEAR     76  70  82 NE5       29.98S
ORLANDO EXEC   CLEAR     77  71  82 NE5       29.97F
ORLANDO INTL   PTCLDY    77  71  82 NE7       29.97F
KISSIMMEE      PTCLDY    78  71  79 NE3       29.98F
WINTER HAVEN   CLEAR     76  68  76 NE3       29.98F
SEBRING        FAIR      77  72  83 CALM      29.95F
OKEECHOBEE     CLEAR     72  72 100 CALM      29.94F

$$
FLZ041-047-054-059-064-141-147-220500-
EAST CENTRAL FLORIDA

CITY           SKY/WX    TMP DP  RH WIND       PRES   REMARKS
DAYTONA BEACH  PTCLDY    80  71  74 E8        29.98S
DELAND         CLEAR     73  70  88 CALM      29.98S
JFK SPACE CTR  CLEAR     78  74  87 E6        29.95F
CAPE CANAVERAL CLEAR     79  71  77 E7        29.95S
PATRICK AFB    PTCLDY    81  77  89 E10       29.93F
MELBOURNE      PTCLDY    82  74  76 NE9       29.95F
VERO BEACH     CLEAR     79  74  84 NE5       29.94F
FT PIERCE      CLEAR     80  75  84 E3        29.94F
STUART         PTCLDY    82  77  83 E7        29.94F

STATION/POSITION SKY/WX   TEMP    WIND        PRES    WAVE   SWELL
                          AIR SEA DIR/SP/G            HT/PER HT/PER
                          (F)     (DEG/KT/KT) (MB)    (FT/S) (FT/S)
28.5N   80.2W              83 84   60/ 12/ 14 1015.1F   4/11   3/11
28.9N   78.5W                      70/ 12/ 16 1015.1F   5/11   5/11
TRIDENT PIER               80 83   50/  8/ 11 1016.2R
28.4N   80.5W                 83                N/A     3/11   2/11
27.5N   80.2W                 83                N/A     4/12   2/12

$$
FLZ050-056-061-142-242-148-248-149-249-151-251-155-255-
160-260-220500-
WEST CENTRAL FLORIDA

CITY           SKY/WX    TMP DP  RH WIND       PRES   REMARKS
CRYSTAL RIVER    N/A    N/A N/A N/A E3        29.98F FOG
INVERNESS      FAIR      73  72  94 CALM      29.99F
BROOKSVILLE    CLEAR     74  69  85 E6        29.99S
CLEARWATER AIR FAIR      79  68  69 E6        29.96S
ST PETE CLEARW CLEAR     82  69  64 E10       29.96S
TAMPA INTL     CLEAR     81  68  64 E5        29.97S
TAMPA EXEC     CLEAR     75  70  83 CALM      29.98S
PLANT CITY     CLEAR     77  70  78 NE3       29.99S
MACDILL AFB    CLEAR     79  74  85 E8        29.96S
PETER O KNIGHT MOCLDY    81  72  74 E9        29.97S
ST PETERSBURG  CLEAR     82  71  69 E15       29.95S
SARASOTA       PTCLDY    79  70  74 E8        29.94S
VENICE         FAIR      79  70  73 E9        29.96R

STATION/POSITION SKY/WX   TEMP    WIND        PRES    WAVE   SWELL
                          AIR SEA DIR/SP/G            HT/PER HT/PER
                          (F)     (DEG/KT/KT) (MB)    (FT/S) (FT/S)
27.3N   84.2W                 83                N/A     1/ 3
CLEARWATER BEACH           82 85   80/  8/ 12 1014.9R
MIDDLE TAMPA BAY           80     120/ 10/ 12 1014.6R
VENICE                     79 84   80/  7/  9 1014.2F

$$
FLZ066-069-070-075>078-162-262-165-265-220500-
SOUTHWEST FLORIDA AND KEYS

CITY           SKY/WX    TMP DP  RH WIND       PRES   REMARKS
PUNTA GORDA    CLEAR     76  72  87 NE5       29.96F
FT MYERS       CLEAR     79  72  79 E6        29.94S
SOUTHWEST INTL CLEAR     78  70  76 E8        29.94S
NAPLES         PTCLDY    78  72  81 NE6       29.93S
IMMOKALEE      FAIR      75  73  94 CALM      29.95F
MARATHON       PTCLDY    84  73  69 E10       29.90F
KEY WEST NAS   CLEAR     84  78  82 MISG      29.92R HX  95
KEY WEST INTL  CLEAR     84  75  74 E5        29.92S

STATION/POSITION SKY/WX   TEMP    WIND        PRES    WAVE   SWELL
                          AIR SEA DIR/SP/G            HT/PER HT/PER
                          (F)     (DEG/KT/KT) (MB)    (FT/S) (FT/S)
NAPLES                        86   40/  3/  7 1013.7R
DRY TORTUGAS               84      50/  8/  9 1013.5R
SAND KEY                   83                 1013.7R

$$
FLZ067-068-071>074-168-172>174-220500-
SOUTHEAST FLORIDA

CITY           SKY/WX    TMP DP  RH WIND       PRES   REMARKS
W PALM BEACH   PTCLDY    82  74  76 E8        29.93F
FT LAUDER-EXEC PTCLDY    82  75  79 CALM      29.92S
FT LAUDERDALE  PTCLDY    82  76  81 NE7       29.92S
POMPANO BEACH  PTCLDY    82  75  79 E7        29.92F
PEMBROKE PINES CLEAR     81  74  79 CALM      29.94S
OPA LOCKA      CLEAR     80  75  84 NE3       29.93S
MIAMI          MOCLDY    83  78  85 N3        29.92F
WEST KENDALL   CLEAR     81  75  82 NE5       29.92F
HOMESTEAD      PTCLDY    81  77  89 NE5       29.91F

STATION/POSITION SKY/WX   TEMP    WIND        PRES    WAVE   SWELL
                          AIR SEA DIR/SP/G            HT/PER HT/PER
                          (F)     (DEG/KT/KT) (MB)    (FT/S) (FT/S)
PORT EVERGLADES            84      60/  9/ 12 1013.2F
VIRGINIA KEY               83 86   40/  5/  9 1012.8S
LAKE WORTH                         70/ 10/ 12   N/A
FOWEY ROCKS                84 85   50/ 10/ 11 1013.6F
SETTLEMENT POINT           83      70/  8/  8 1013.3F

$$




USA.gov is the U.S. government's official web portal to all federal, state and local government web resources and services.